Corinth, MS

12:04 PM CST on December 14, 2017 (GMT -0600)
Turner

Weather History for KCRX - September, 2012

Change the Weather History Date:

Sunday, September 30, 2012

  Actual Average Record
Temperature  
Mean Temperature 60 °F -  
Max Temperature 66 °F 81 °F 96 °F (1933)
Min Temperature 53 °F 53 °F 33 °F (1984)
Degree Days  
Heating Degree Days 6    
Growing Degree Days 10 (Base 50)    
Moisture  
Dew Point 55 °F    
Average Humidity 85    
Maximum Humidity 94    
Minimum Humidity 73    
Precipitation  
Precipitation 0.06 in - - ()
Sea Level Pressure  
Sea Level Pressure 29.86 in    
Wind  
Wind Speed 2 mph (NE)    
Max Wind Speed 15 mph    
Max Gust Speed 21 mph    
Visibility 9 miles    
Events Rain    
Averages and records for this station are not official NWS values.
T = Trace of Precipitation, MM = Missing Value Source: NWS Daily Summary

Daily Weather History Graph

Daily Weather History Graph

Search for Another Location

Airport or City:

Trip Planner

Search our weather history database for the weather conditions in past years. The results will help you decide how hot, cold, wet, or windy it might be!

Date:

Astronomy

Sep. 30, 2012 Rise Set
Actual Time 6:48 AM CDT 6:39 PM CDT
Civil Twilight 6:23 AM CDT 7:04 PM CDT
Nautical Twilight 5:54 AM CDT 7:33 PM CDT
Astronomical Twilight 5:24 AM CDT 8:02 PM CDT
Moon 6:47 PM CDT (9/30) 7:15 AM CDT (9/30)
Length of Visible Light 12h 40m
Length of Day
11h 50m
Full, 100% of the Moon is Illuminated
Sep 30
Full
Oct 8
Last Quarter
Oct 15
New
Oct 21
First Quarter
Oct 29
Full

Hourly Weather History & Observations

Time (CDT) Temp. Dew Point Humidity Pressure Visibility Wind Dir Wind Speed Gust Speed Precip Events Conditions
12:05 AM 59.0 °F 53.6 °F 82% 29.95 in 10.0 mi Calm Calm - N/A   Clear
12:25 AM 59.0 °F 53.6 °F 82% 29.95 in 10.0 mi Calm Calm - N/A   Clear
12:45 AM 59.0 °F 53.6 °F 82% 29.95 in 10.0 mi Calm Calm - N/A   Clear
1:05 AM 57.2 °F 53.6 °F 88% 29.94 in 10.0 mi Calm Calm - N/A   Clear
1:25 AM 57.2 °F 53.6 °F 88% 29.94 in 10.0 mi North 3.5 mph - N/A   Clear
1:45 AM 57.2 °F 53.6 °F 88% 29.94 in 10.0 mi Calm Calm - N/A   Clear
2:05 AM 57.2 °F 53.6 °F 88% 29.94 in 10.0 mi Calm Calm - N/A   Clear
2:25 AM 55.4 °F 53.6 °F 94% 29.94 in 10.0 mi Calm Calm - N/A   Clear
2:45 AM 55.4 °F 53.6 °F 94% 29.93 in 10.0 mi Calm Calm - N/A   Clear
3:05 AM 55.4 °F 53.6 °F 94% 29.92 in 10.0 mi Calm Calm - N/A   Clear
3:25 AM 53.6 °F 51.8 °F 94% 29.92 in 9.0 mi Calm Calm - N/A   Clear
3:45 AM 53.6 °F 51.8 °F 94% 29.92 in 6.0 mi Calm Calm - N/A   Clear
4:05 AM 53.6 °F 51.8 °F 94% 29.91 in 10.0 mi Calm Calm - N/A   Clear
4:25 AM 55.4 °F 53.6 °F 94% 29.91 in 10.0 mi Calm Calm - N/A   Clear
4:45 AM 53.6 °F 51.8 °F 94% 29.91 in 10.0 mi Calm Calm - N/A   Clear
5:05 AM 53.6 °F 51.8 °F 94% 29.91 in 7.0 mi Calm Calm - N/A   Clear
5:25 AM 53.6 °F 51.8 °F 94% 29.90 in 9.0 mi Calm Calm - N/A   Clear
5:45 AM 53.6 °F 51.8 °F 94% 29.90 in 9.0 mi Calm Calm - N/A   Clear
6:05 AM 55.4 °F 53.6 °F 94% 29.90 in 10.0 mi Calm Calm - N/A   Clear
6:25 AM 55.4 °F 53.6 °F 94% 29.90 in 10.0 mi Calm Calm - N/A   Clear
6:45 AM 55.4 °F 53.6 °F 94% 29.90 in 10.0 mi Calm Calm - N/A   Clear
7:05 AM 55.4 °F 53.6 °F 94% 29.90 in 9.0 mi West 3.5 mph - N/A   Clear
7:25 AM 55.4 °F 53.6 °F 94% 29.90 in 8.0 mi Calm Calm - N/A   Clear
7:45 AM 57.2 °F 53.6 °F 88% 29.91 in 10.0 mi WSW 3.5 mph - N/A   Clear
8:05 AM 57.2 °F 53.6 °F 88% 29.91 in 10.0 mi Calm Calm - N/A   Clear
8:25 AM 57.2 °F 55.4 °F 94% 29.91 in 8.0 mi WNW 3.5 mph - N/A   Clear
8:45 AM 59.0 °F 55.4 °F 88% 29.92 in 9.0 mi Calm Calm - N/A   Clear
9:05 AM 59.0 °F 55.4 °F 88% 29.92 in 10.0 mi Calm Calm - N/A   Clear
9:25 AM 59.0 °F 55.4 °F 88% 29.92 in 10.0 mi Calm Calm - N/A   Clear
9:45 AM 60.8 °F 55.4 °F 82% 29.92 in 9.0 mi Calm Calm - N/A   Clear
10:05 AM 60.8 °F 55.4 °F 82% 29.91 in 10.0 mi Calm Calm - N/A   Clear
10:25 AM 60.8 °F 57.2 °F 88% 29.91 in 10.0 mi Calm Calm - N/A   Clear
10:45 AM 62.6 °F 57.2 °F 82% 29.90 in 10.0 mi Calm Calm - N/A   Partly Cloudy
11:25 AM 64.4 °F 57.2 °F 77% 29.88 in 10.0 mi NE 4.6 mph - N/A Rain Light Rain
11:45 AM 64.4 °F 57.2 °F 77% 29.87 in 10.0 mi NNE 4.6 mph - N/A Rain Light Rain
12:05 PM 64.4 °F 57.2 °F 77% 29.87 in 10.0 mi NNE 5.8 mph - N/A   Clear
12:25 PM 64.4 °F 57.2 °F 77% 29.86 in 10.0 mi NE 6.9 mph - N/A   Clear
12:45 PM 66.2 °F 57.2 °F 73% 29.87 in 10.0 mi NE 5.8 mph - N/A   Clear
1:05 PM 66.2 °F 57.2 °F 73% 29.87 in 10.0 mi Calm Calm - N/A   Clear
1:25 PM 66.2 °F 57.2 °F 73% 29.86 in 10.0 mi East 3.5 mph - N/A Rain Light Rain
1:45 PM 66.2 °F 57.2 °F 73% 29.84 in 10.0 mi NE 4.6 mph - N/A   Clear
2:05 PM 66.2 °F 59.0 °F 78% 29.83 in 10.0 mi NNE 5.8 mph - N/A   Clear
2:25 PM 66.2 °F 59.0 °F 78% 29.82 in 10.0 mi NNE 8.1 mph - N/A Rain Light Rain
3:05 PM 64.4 °F 59.0 °F 83% 29.80 in 9.0 mi NNE 6.9 mph - N/A Rain Light Rain
3:25 PM 64.4 °F 59.0 °F 83% 29.79 in 10.0 mi NE 6.9 mph - N/A Rain Light Rain
3:45 PM 64.4 °F 59.0 °F 83% 29.79 in 10.0 mi ENE 5.8 mph - N/A   Clear
4:05 PM 64.4 °F 59.0 °F 83% 29.79 in 10.0 mi NE 4.6 mph - N/A Rain Light Rain
4:25 PM 64.4 °F 59.0 °F 83% 29.79 in 10.0 mi NE 5.8 mph - N/A Rain Light Rain
4:45 PM 64.4 °F 59.0 °F 83% 29.79 in 10.0 mi NE 4.6 mph - N/A Rain Light Rain
5:05 PM 64.4 °F 59.0 °F 83% 29.78 in 10.0 mi NNE 6.9 mph - N/A Rain Light Rain
5:25 PM 64.4 °F 59.0 °F 83% 29.78 in 10.0 mi NE 5.8 mph - N/A Rain Light Rain
5:45 PM 64.4 °F 57.2 °F 77% 29.78 in 10.0 mi NE 8.1 mph - N/A Rain Light Rain
6:05 PM 64.4 °F 57.2 °F 77% 29.78 in 10.0 mi NE 4.6 mph - N/A   Mostly Cloudy
6:25 PM 62.6 °F 57.2 °F 82% 29.78 in 10.0 mi NNE 5.8 mph - N/A Rain Light Rain
7:05 PM 62.6 °F 59.0 °F 88% 29.77 in 10.0 mi NE 9.2 mph - N/A   Overcast
7:25 PM 62.6 °F 59.0 °F 88% 29.79 in 7.0 mi NNE 5.8 mph - N/A Rain Light Rain
7:45 PM 62.6 °F 59.0 °F 88% 29.79 in 9.0 mi NNE 8.1 mph - 0.01 in Rain Light Rain
8:05 PM 62.6 °F 57.2 °F 82% 29.79 in 9.0 mi North 8.1 mph - N/A Rain Light Rain
8:25 PM 60.8 °F 55.4 °F 82% 29.77 in 7.0 mi NNE 11.5 mph 18.4 mph 0.01 in Rain Light Rain
8:45 PM 59.0 °F 53.6 °F 82% 29.77 in 10.0 mi North 10.4 mph - 0.02 in Rain Light Rain
9:05 PM 59.0 °F 53.6 °F 82% 29.78 in 3.0 mi NNE 10.4 mph - N/A Rain Heavy Rain
9:25 PM 59.0 °F 53.6 °F 82% 29.78 in 8.0 mi NNE 12.7 mph 17.3 mph 0.01 in Rain Rain
10:05 PM 59.0 °F 53.6 °F 82% 29.78 in 10.0 mi NE 9.2 mph 16.1 mph N/A   Overcast
10:25 PM 59.0 °F 53.6 °F 82% 29.77 in 10.0 mi NE 4.6 mph - N/A Rain Light Rain
10:45 PM 59.0 °F 53.6 °F 82% 29.77 in 10.0 mi NE 9.2 mph - N/A Rain Light Rain
11:05 PM 57.2 °F 53.6 °F 88% 29.75 in 5.0 mi NE 9.2 mph - N/A Rain Light Rain
11:25 PM 57.2 °F 53.6 °F 88% 29.74 in 9.0 mi NE 15.0 mph 20.7 mph 0.01 in Rain Light Rain
11:45 PM 57.2 °F 53.6 °F 88% 29.74 in 6.0 mi NE 10.4 mph 20.7 mph 0.02 in Rain Rain